DMSP 5D-3 F18 (USA 210)

导读

DMSP 5D-3 F18(USA 210)是美国国防部国防气象卫星计划(DMSP)的第7代极轨气象卫星,于2009年10月18日发射升空。卫星运行在约830公里高度的太阳同步轨道,周期约101分钟,搭载线性扫描业务系统OLS,可实现全球气象监测,提供云图、强风、海况及夜间微光观测数据,为气象预报和军事行动保障提供关键信息支撑。

Basic Information
目录编号:
35951
目录名称:
DMSP 5D-3 F18 (USA 210)
国际标识:
2009-057A
轨道中心:
EARTH
卫星名称:
DMSP 5D-3 F18 (USA 210)
卫星全名:
--
卫星状态:
在轨 (已飞行6084 天)
发射日期:
2009-10-18 UTC
国别 :
美国 (US)
星等 :
--
Orbit Information
数据来源 国际轨道数据
星历时间: 2026-06-15T06:46:23+0800
6小时前
查看轨道信息
半长轴: 7220.805km
偏心率: 0.0009866
轨道倾角: 98.904°
近地点辐角 256.640°
升交点赤经 146.723°
平近点角 103.367°
近地点: 835.543km
远地点: 849.793km
周期: 101.774分钟
每日圈数: 14.148955
Detailed Information
使用方式:
暂无
2D Orbit Map
3D Orbit Map
Orbit Altitude Analysis Chart
Orbit Inclination Analysis Chart
Orbit Comprehensive Analysis Chart
View Comprehensive Chart